Location: Vercelli
(45.3170°N, 8.4170°E)
Time: 06:31:46
(UTC+01:00)

ISS - Visible Passes

Search period start: 20 January 2019 00:00
Search period end: 30 January 2019 00:00
Orbit: 404 x 410 km, 51.6° (Epoch: 20 January)

Date Brightness Start Highest point End Pass type
(mag) Time Alt. Az. Time Alt. Az. Time Alt. Az.
21 Jan -1.4 18:45:16 10° SSE 18:46:04 12° SE 18:46:04 12° SE visible
22 Jan -2.1 19:28:10 10° SW 19:29:55 27° SSW 19:29:55 27° SSW visible
23 Jan -2.5 18:37:15 10° SSW 18:40:04 26° SE 18:40:56 23° ESE visible
23 Jan -0.5 20:13:12 10° WSW 20:13:40 13° W 20:13:40 13° W visible
24 Jan -3.5 19:21:43 10° WSW 19:24:36 65° WSW 19:24:36 65° WSW visible
25 Jan -3.6 18:30:23 10° SW 18:33:38 59° SE 18:35:27 23° ENE visible
25 Jan -0.8 20:07:15 10° W 20:08:10 16° WNW 20:08:10 16° WNW visible
26 Jan -3.2 19:15:35 10° W 19:18:47 46° NNW 19:18:57 45° N visible
27 Jan -3.6 18:24:00 10° WSW 18:27:17 68° NNW 18:29:41 17° NE visible
27 Jan -1.0 20:01:19 10° WNW 20:02:24 17° NW 20:02:24 17° NW visible
28 Jan -2.6 19:09:35 10° WNW 19:12:36 31° NNW 19:13:05 30° N visible
29 Jan -2.9 18:17:52 10° W 18:21:00 40° NNW 18:23:44 13° NE visible
29 Jan -1.2 19:55:15 10° WNW 19:56:27 18° NW 19:56:27 18° NW visible
